Location: Koszalin
(54.1903°N, 16.1817°E)
Time: 23:41:29
(UTC+01:00)

ISS - Visible Passes

Search period start: 21 January 2018 00:00
Search period end: 31 January 2018 00:00
Orbit: 402 x 407 km, 51.6° (Epoch: 22 January)

Date Brightness Start Highest point End Pass type
(mag) Time Alt. Az. Time Alt. Az. Time Alt. Az.
26 Jan -1.0 18:56:21 10° S 18:56:24 10° S 18:56:24 10° S visible
27 Jan -1.4 18:05:25 10° SSE 18:06:25 11° SE 18:06:25 11° SE visible
28 Jan -2.0 18:47:11 10° SSW 18:49:02 22° S 18:49:02 22° S visible
29 Jan -1.9 17:55:25 10° SSW 17:57:46 18° SSE 17:58:54 16° ESE visible
29 Jan -1.2 19:30:35 10° WSW 19:31:34 18° SW 19:31:34 18° SW visible
30 Jan -3.0 18:38:23 10° SW 18:41:23 37° SSE 18:41:23 37° SSE visible
